Погода в Санта-Барбаре

США     34°25′49″N   119°42′07″W
темп.,
°C
ветер,
м/с
пор.,
м/с
влажн.,
%
обл.,
%
осадки,
мм/ч
давл.,
гПа
погр.,
м
31 июля, сб
сб3123:00+21ссв115214 0.0 101517
02:00+19св115466 0.0 101515
05:00+18св115189 0.0 101517
08:00+25зюз112966 0.0 1017131
11:00+30юз332214 0.0 1017565
14:00+31ююз33206 0.0 1016646
17:00+30юз33193 0.1 1015550
20:00+22ссз11325 0.0 101616
1 августа, вс
вс123:00+22ссв22270 0.0 101715
02:00+22ссв22200 0.0 101614
05:00+21ссв22210 0.0 101612
08:00+26ююз10190 0.0 1017135
11:00+31ююз22156 0.0 1017567
14:00+33ююз33146 0.0 1016786
17:00+31ююз33166 0.1 1016542
20:00+23сз11250 0.0 101611
2 августа, пн
пн223:00+22ссв22220 0.0 101714
02:00+21ссв22220 0.0 101613
05:00+20ссв22210 0.0 101612
08:00+26ююз00140 0.0 1017135
11:00+33юз2190 0.0 1016676
14:00+34ююз33106 0.0 1015903
17:00+34юз34120 0.0 10131155
20:00+25ссз22200 0.0 101319
3 августа, вт
вт323:00+23с22200 0.0 101417
02:00+22ссв22190 0.0 101313
05:00+22ссв22180 0.0 101314
08:00+28сз01130 0.0 1014111
11:00+34юз32120 0.0 1013640
14:00+36ююз32116 0.0 1012861
17:00+35зюз33140 0.0 1011984
20:00+27ссз34240 0.0 101167
4 августа, ср
ср423:00+24с32240 0.0 101121
02:00+22с21240 0.0 101112
05:00+22с22240 0.0 101214
08:00+28зсз11170 0.0 1013132
11:00+33юз33140 0.0 1013609
14:00+36зюз34130 0.0 10111243
17:00+35зсз55110 0.0 1010859
20:00+24ссз45240 0.0 1011107